| time (UTC) | temp C | wind direction | speed KPH | gust KPH | rain 1hr cm | rain 24hr cm | rain mn cm | humidity % | barometer mb |
| 20260504044531 | 12 | 0 | 0.0 | 0.0 | 0.00 | 0.00 | 0.00 | 86 | 1020.3 |
| 20260504043045 | 12 | 0 | 0.0 | 0.0 | 0.00 | 0.00 | 0.00 | 85 | 1020.4 |
| 20260504041537 | 13 | 0 | 0.0 | 0.0 | 0.00 | 0.00 | 0.00 | 84 | 1020.4 |
| 20260504040035 | 13 | 0 | 0.0 | 0.0 | 0.00 | 0.00 | 0.00 | 83 | 1020.2 |
| 20260504034534 | 13 | 0 | 0.0 | 0.0 | 0.00 | 0.00 | 0.00 | 84 | 1020.2 |
| 20260504033037 | 13 | 0 | 0.0 | 0.0 | 0.00 | 0.00 | 0.00 | 82 | 1020.3 |
| 20260504031535 | 13 | 0 | 0.0 | 0.0 | 0.00 | 0.00 | 0.00 | 81 | 1020.3 |
| 20260504030035 | 14 | 0 | 0.0 | 0.0 | 0.00 | 0.00 | 0.00 | 80 | 1020.2 |
| 20260504024536 | 14 | 0 | 0.0 | 0.0 | 0.00 | 0.00 | 0.00 | 79 | 1020.2 |
| 20260504023034 | 15 | 0 | 0.0 | 0.0 | 0.00 | 0.00 | 0.00 | 78 | 1020.1 |
| 20260504021533 | 15 | 0 | 0.0 | 0.0 | 0.00 | 0.00 | 0.00 | 77 | 1020.0 |
| 20260504020036 | 15 | 0 | 0.0 | 0.0 | 0.00 | 0.00 | 0.00 | 74 | 1019.9 |
| 20260504014538 | 16 | 0 | 0.0 | 0.0 | 0.00 | 0.00 | 0.00 | 71 | 1019.9 |
| 20260504013047 | 17 | 0 | 0.0 | 0.0 | 0.00 | 0.00 | 0.00 | 69 | 1019.6 |
| 20260504011537 | 17 | 0 | 0.0 | 0.0 | 0.00 | 0.00 | 0.00 | 66 | 1019.5 |
| 20260504010039 | 17 | 0 | 0.0 | 3.2 | 0.00 | 0.00 | 0.00 | 65 | 1019.3 |
| 20260504004532 | 18 | 0 | 0.0 | 1.6 | 0.00 | 0.00 | 0.00 | 63 | 1019.1 |
| 20260504003055 | 18 | 0 | 0.0 | 0.0 | 0.00 | 0.00 | 0.00 | 62 | 1018.9 |
| 20260504001538 | 19 | 0 | 0.0 | 0.0 | 0.00 | 0.00 | 0.00 | 59 | 1018.7 |
| 20260504000037 | 20 | 0 | 0.0 | 0.0 | 0.00 | 0.00 | 0.00 | 60 | 1018.8 |
| 20260503234535 | 22 | 0 | 0.0 | 8.0 | 0.00 | 0.00 | 0.00 | 45 | 1018.7 |
| 20260503233033 | 22 | 0 | 0.0 | 3.2 | 0.00 | 0.00 | 0.00 | 44 | 1018.8 |
| 20260503231532 | 22 | 0 | 0.0 | 6.4 | 0.00 | 0.00 | 0.00 | 42 | 1018.9 |
| 20260503230035 | 23 | 0 | 0.0 | 6.4 | 0.00 | 0.00 | 0.00 | 43 | 1018.9 |
| 20260503224535 | 23 | 0 | 3.2 | 14.5 | 0.00 | 0.00 | 0.00 | 42 | 1019.0 |
| 20260503223036 | 23 | 0 | 0.0 | 3.2 | 0.00 | 0.00 | 0.00 | 41 | 1019.0 |
| 20260503221536 | 23 | 0 | 0.0 | 12.9 | 0.00 | 0.00 | 0.00 | 42 | 1019.0 |
| 20260503220035 | 23 | 0 | 0.0 | 6.4 | 0.00 | 0.00 | 0.00 | 42 | 1019.1 |
| 20260503214530 | 24 | 236 | 0.0 | 4.8 | 0.00 | 0.00 | 0.00 | 41 | 1019.1 |
| 20260503213033 | 24 | 0 | 4.8 | 12.9 | 0.00 | 0.00 | 0.00 | 42 | 1019.1 |
| 20260503211535 | 25 | 352 | 0.0 | 9.7 | 0.00 | 0.00 | 0.00 | 43 | 1019.3 |
| 20260503210034 | 23 | 331 | 1.6 | 6.4 | 0.00 | 0.00 | 0.00 | 39 | 1019.4 |
| 20260503204532 | 24 | 340 | 3.2 | 9.7 | 0.00 | 0.00 | 0.00 | 40 | 1019.6 |
| 20260503203029 | 25 | 0 | 1.6 | 9.7 | 0.00 | 0.00 | 0.00 | 35 | 1019.9 |
| 20260503201538 | 23 | 341 | 1.6 | 11.3 | 0.00 | 0.00 | 0.00 | 36 | 1020.2 |
| 20260503200032 | 24 | 0 | 1.6 | 8.0 | 0.00 | 0.00 | 0.00 | 40 | 1020.5 |
| 20260503194533 | 24 | 300 | 1.6 | 6.4 | 0.00 | 0.00 | 0.00 | 39 | 1020.8 |
| 20260503193032 | 24 | 291 | 4.8 | 12.9 | 0.00 | 0.00 | 0.00 | 38 | 1020.9 |
| 20260503191536 | 24 | 48 | 3.2 | 19.3 | 0.00 | 0.00 | 0.00 | 33 | 1021.1 |
| 20260503190030 | 23 | 41 | 3.2 | 14.5 | 0.00 | 0.00 | 0.00 | 42 | 1021.5 |
| 20260503184531 | 23 | 323 | 3.2 | 16.1 | 0.00 | 0.00 | 0.00 | 41 | 1021.7 |
| 20260503183032 | 24 | 19 | 3.2 | 11.3 | 0.00 | 0.00 | 0.00 | 37 | 1021.8 |
| 20260503181530 | 23 | 360 | 1.6 | 9.7 | 0.00 | 0.00 | 0.00 | 41 | 1022.0 |
| 20260503180043 | 23 | 333 | 3.2 | 14.5 | 0.00 | 0.00 | 0.00 | 42 | 1022.2 |
| 20260503174532 | 22 | 94 | 1.6 | 11.3 | 0.00 | 0.00 | 0.00 | 41 | 1022.6 |
| 20260503173032 | 22 | 75 | 4.8 | 14.5 | 0.00 | 0.00 | 0.00 | 38 | 1022.8 |
| 20260503171531 | 22 | 23 | 3.2 | 8.0 | 0.00 | 0.00 | 0.00 | 36 | 1023.0 |
| 20260503081535 | 8 | 0 | 0.0 | 0.0 | 0.00 | 0.56 | 0.00 | 89 | 1020.8 |
| 20260503071535 | 8 | 0 | 0.0 | 0.0 | 0.00 | 0.91 | 0.00 | 87 | 1020.3 |
| 20260503060105 | 10 | 0 | 0.0 | 0.0 | 0.00 | 1.27 | 0.00 | 82 | 1020.3 |
| 20260503054538 | 12 | 0 | 0.0 | 0.0 | 0.00 | 1.70 | 0.00 | 77 | 1020.1 |
| 20260503053034 | 12 | 0 | 0.0 | 0.0 | 0.00 | 1.70 | 0.00 | 77 | 1020.0 |